GFSSW_925_spd_021.txt.gz
Wind_Speed
15 15 15 13 13 14 15 15 16 16 17 18 19 20 21 21 23 17 13 13 7 10 7 10 11 8 8 7 7 2 6 11 8 9 8 1 3 1 2 7 5 6 11 7 9
15 16 15 15 16 15 15 16 15 16 15 15 17 19 20 19 16 13 29 28 28 20 14 16 11 14 5 6 7 8 11 15 15 12 11 3 6 6 6 11 20 15 14 10 8
15 16 16 18 18 18 17 16 16 15 15 15 14 17 18 16 6 5 8 4 14 26 21 13 12 13 12 6 10 10 19 24 20 15 9 15 13 10 13 19 21 17 19 18 15
18 18 18 18 18 19 19 18 17 16 15 14 14 13 15 3 8 10 7 10 20 19 22 17 13 11 12 16 16 14 19 23 25 18 14 20 16 17 19 27 24 21 18 19 19
20 21 20 21 20 20 20 21 20 19 18 16 12 11 6 4 9 10 13 15 9 8 19 18 20 20 19 15 19 19 22 19 20 23 20 19 22 22 23 28 23 21 19 19 19
21 20 22 22 22 22 22 22 22 21 21 16 12 9 5 12 11 19 24 24 7 6 9 17 9 14 13 14 21 11 23 24 20 18 20 20 27 16 22 24 20 19 22 22 21
21 22 22 22 22 22 24 25 26 26 22 18 14 10 13 23 13 12 13 13 6 7 11 16 20 6 3 8 15 15 16 14 14 18 14 12 23 23 27 24 18 20 21 21 22
23 24 24 24 23 23 25 28 29 28 23 17 14 9 9 13 14 23 20 19 22 22 9 13 17 14 9 4 2 10 9 16 14 19 12 12 25 16 18 13 15 17 17 17 21
24 25 25 24 23 24 27 29 29 13 9 5 6 7 11 7 9 14 17 17 13 16 16 7 11 10 6 15 9 9 16 18 14 10 4 16 22 12 11 11 15 19 20 19 20
23 25 26 24 24 25 28 29 5 3 7 7 2 4 7 3 3 11 10 16 10 12 8 10 9 12 15 16 23 16 12 11 12 10 18 21 25 18 16 16 17 20 20 19 19
23 25 25 24 25 26 26 5 2 2 2 7 6 7 16 12 14 9 2 5 10 15 15 21 12 24 33 28 19 19 19 23 19 14 13 19 21 14 15 20 20 20 20 19 19
26 27 25 24 26 20 10 3 4 2 10 15 22 23 31 17 10 13 11 9 10 17 19 12 29 33 20 21 24 24 23 20 16 12 10 15 23 17 14 19 21 22 21 20 19
27 26 24 25 24 2 10 3 3 8 5 14 10 10 9 10 13 20 12 9 10 18 28 25 38 21 21 24 24 27 28 22 21 9 11 12 22 16 21 14 15 20 19 18 16
26 24 24 25 5 11 8 4 13 3 4 6 4 5 5 6 6 15 21 15 12 21 21 23 27 20 25 29 22 26 24 22 21 11 15 4 18 14 19 22 21 21 15 15 10
25 25 23 16 14 5 5 11 13 4 5 3 3 1 1 5 11 3 17 19 24 11 16 18 16 25 27 28 24 19 17 18 20 17 16 18 13 16 12 19 23 19 15 7 1
28 28 22 11 7 12 13 13 2 3 7 2 3 8 10 3 11 8 2 18 15 16 21 19 10 24 30 19 23 12 12 16 12 12 14 19 15 14 16 20 16 13 9 2 4
33 30 16 6 3 5 4 3 2 5 8 1 6 10 12 9 8 19 14 11 13 18 18 17 15 4 13 19 21 19 14 6 7 7 10 15 11 18 14 16 15 15 9 4 7
31 22 5 1 3 3 4 1 6 3 6 14 11 15 11 9 5 17 16 9 19 17 8 14 10 20 18 18 18 26 21 9 9 7 9 7 10 8 19 21 21 17 8 5 9
31 10 6 10 3 5 2 3 3 3 6 10 13 7 3 6 7 6 10 7 9 15 7 12 16 15 18 16 22 23 18 15 3 1 4 6 6 11 15 9 11 14 7 8 11
11 5 7 11 4 5 2 3 3 8 13 9 7 5 7 7 6 3 2 2 10 13 11 7 7 14 21 23 25 19 20 11 9 11 8 6 4 9 9 14 10 9 10 10 12
6 2 9 7 1 1 2 3 6 9 10 4 4 7 8 9 9 6 4 5 5 15 13 8 7 12 20 23 24 12 22 8 9 5 6 3 5 7 12 14 14 10 12 15 16
5 1 7 6 1 1 3 9 8 9 7 6 5 8 12 11 10 5 7 5 3 5 8 7 6 6 26 11 22 20 20 21 10 11 5 2 4 3 8 2 1 8 11 13 15
4 3 2 2 3 5 7 8 6 8 9 5 5 6 6 5 5 7 7 2 7 4 3 6 6 9 12 9 16 27 22 23 9 3 17 9 2 1 3 1 3 7 11 11 14
2 4 3 3 1 5 8 5 7 9 5 7 11 8 7 6 5 5 8 3 8 2 5 5 4 7 7 6 3 24 25 21 19 10 10 18 12 16 7 4 5 6 12 13 14
3 2 1 5 3 10 6 5 9 8 5 7 4 3 9 5 10 1 3 6 4 3 2 1 3 5 13 13 9 3 24 22 24 20 15 11 24 21 14 9 1 8 12 15 16
2 2 1 5 7 9 4 4 9 9 6 8 5 14 14 10 12 16 9 3 3 1 2 2 0 7 10 8 9 8 8 24 23 23 14 9 17 18 14 4 4 11 15 17 17
1 4 3 5 3 5 2 4 8 16 9 9 12 15 14 11 6 10 14 14 13 4 2 3 3 3 15 4 4 9 13 11 17 24 21 17 16 1 4 7 7 12 17 18 18

GFSSW_925_spd_024.txt.gz
Wind_Speed
16 17 17 17 18 20 20 16 16 15 16 16 15 17 20 22 22 13 15 12 6 13 6 7 14 12 13 13 13 12 11 14 19 14 11 5 8 1 2 10 10 7 11 12 13
17 17 18 18 18 17 18 18 17 16 15 16 16 17 19 18 20 19 18 19 20 17 13 17 14 18 14 16 11 14 15 23 21 13 15 8 9 8 9 14 18 15 17 8 13
18 19 19 20 20 19 18 19 18 18 16 16 15 16 16 14 13 10 10 8 8 27 27 23 20 17 21 17 20 19 24 23 23 21 19 19 20 19 16 18 21 21 19 17 19
16 16 17 19 20 21 19 17 16 16 16 18 16 13 14 6 9 8 13 5 10 15 23 27 20 22 21 25 22 29 25 23 26 25 20 19 23 23 22 20 23 22 21 23 22
17 17 17 17 18 18 19 20 19 18 17 16 15 13 9 9 15 3 11 10 6 7 25 26 26 24 28 23 25 30 25 25 22 25 23 23 26 29 27 22 24 21 21 20 19
17 18 18 19 20 20 20 21 21 22 20 15 13 11 11 17 7 13 14 12 10 8 13 24 15 22 24 27 28 26 28 29 28 27 25 25 26 26 26 22 26 22 22 21 20
18 20 20 20 20 21 22 23 24 22 22 18 14 9 12 21 14 11 16 16 11 12 14 15 27 12 16 21 25 25 27 27 22 25 27 25 27 28 25 21 25 22 18 20 20
19 21 22 22 21 22 24 26 26 27 23 16 12 11 9 13 14 21 20 22 20 19 14 13 15 22 18 13 14 20 24 25 26 22 21 16 30 24 17 19 19 16 18 20 22
20 21 23 22 22 23 27 29 26 14 10 6 8 10 11 4 10 17 16 18 17 19 18 14 16 19 15 21 18 25 26 32 26 24 24 25 35 25 23 17 15 16 19 20 22
22 23 24 23 23 27 29 21 6 2 1 5 6 6 10 9 3 5 7 11 11 15 13 19 13 15 20 19 30 28 25 26 28 21 17 27 33 23 21 20 19 19 20 21 20
23 24 23 22 23 27 18 11 5 7 9 12 8 15 19 17 9 14 6 8 10 16 24 24 20 27 43 34 26 26 26 31 26 25 24 26 30 27 23 16 21 23 21 21 22
25 24 23 23 25 21 11 8 3 6 12 18 25 25 31 28 13 19 15 10 12 21 24 20 30 46 29 29 29 29 28 30 24 19 22 23 29 27 22 23 22 25 22 23 21
25 24 25 24 22 4 12 6 2 10 7 16 13 14 12 12 16 21 18 19 19 19 26 33 40 27 28 31 32 31 31 24 26 19 18 22 28 28 26 28 26 23 20 20 20
27 26 24 22 9 10 8 2 7 8 6 9 5 5 6 6 6 20 13 21 19 24 22 30 33 26 32 33 31 32 24 24 24 20 23 21 24 27 25 27 22 23 22 23 18
27 27 24 16 14 7 6 6 7 5 6 6 6 4 3 7 8 7 10 15 27 21 15 30 20 35 29 43 29 30 18 22 23 21 23 27 19 21 19 23 25 25 21 17 13
29 26 23 6 6 9 9 8 5 5 8 1 3 3 7 7 3 5 5 12 13 27 26 28 15 22 41 20 28 22 18 21 18 16 20 21 21 21 23 26 24 21 17 14 7
31 24 5 2 5 6 3 6 5 7 8 1 8 8 15 15 3 10 7 12 12 17 27 25 29 22 21 29 24 23 22 10 13 13 15 16 15 23 21 19 22 16 11 10 8
28 5 4 3 4 4 6 4 5 6 7 16 13 17 18 12 1 7 9 7 15 23 18 23 21 30 22 30 24 30 27 14 18 14 13 19 11 14 11 18 22 19 10 10 10
12 1 7 8 3 3 4 5 5 11 8 11 17 16 15 6 4 8 3 3 6 15 20 21 28 27 25 24 29 28 27 25 8 4 8 9 14 13 18 15 13 12 16 12 10
10 3 11 8 3 1 2 5 5 6 13 14 15 9 13 12 8 7 1 5 6 12 14 9 12 25 33 24 26 28 24 22 13 15 12 8 12 7 3 6 10 12 13 11 13
6 3 7 5 1 1 3 6 12 12 14 8 13 13 15 14 13 13 5 7 4 9 15 13 8 17 24 24 27 18 23 21 17 12 13 6 6 7 13 7 11 12 14 15 16
5 2 5 5 2 2 5 11 8 12 11 10 8 6 8 10 12 12 8 3 9 3 9 6 8 11 27 26 24 24 21 26 14 20 10 7 2 4 4 3 8 6 11 16 17
6 3 1 5 4 6 11 15 10 14 15 7 10 6 13 11 5 5 6 11 11 7 3 3 11 11 12 24 22 27 22 27 15 9 19 12 3 3 6 5 4 9 13 16 18
4 4 2 2 3 8 11 8 12 10 10 12 13 12 12 10 7 7 9 7 5 7 9 7 9 17 7 22 18 25 28 26 23 12 13 16 11 8 8 10 7 9 13 16 18
3 2 3 4 5 11 10 8 12 9 7 14 6 7 11 8 16 2 7 13 7 5 5 4 12 19 13 8 7 13 25 23 26 19 15 14 18 14 11 8 6 9 15 17 18
3 3 4 10 9 11 7 8 12 14 12 10 13 17 17 16 13 17 13 6 2 5 5 4 4 13 16 14 8 8 13 26 23 22 21 11 13 13 14 11 6 6 15 18 18
1 3 3 7 6 6 6 10 12 15 10 9 13 16 14 12 14 17 16 14 13 13 6 4 4 10 17 16 7 10 13 19 21 19 21 19 16 3 2 5 7 2 14 18 19

GFSSW_925_spd_027.txt.gz
Wind_Speed
16 16 16 17 17 16 16 17 18 17 17 17 18 20 20 21 21 16 17 13 14 17 11 10 15 19 17 18 23 20 15 17 21 20 18 12 11 14 3 11 6 9 9 13 15
18 17 17 16 17 18 18 17 17 17 18 20 20 20 20 20 23 24 25 20 23 14 14 21 19 20 16 19 20 20 17 24 20 19 19 17 10 14 8 12 15 16 19 18 10
19 19 19 19 18 17 18 18 18 18 17 16 18 20 18 17 15 13 8 31 25 24 24 24 24 19 23 21 24 24 24 24 23 21 21 26 23 19 19 21 17 17 19 16 19
19 19 20 21 22 22 20 18 17 17 17 17 15 17 15 11 10 7 9 10 8 12 25 28 25 26 25 27 26 29 30 27 28 27 27 31 26 25 23 23 22 19 22 17 19
18 19 20 21 22 23 23 22 20 20 19 18 16 13 13 11 16 9 1 7 9 13 24 24 28 29 32 28 28 34 31 30 30 30 29 29 30 31 27 26 26 21 21 18 21
17 19 21 21 22 21 22 23 24 22 23 19 15 11 15 23 11 13 15 16 14 15 17 26 29 29 31 32 32 31 33 34 32 31 30 30 32 28 28 27 27 23 23 22 22
18 19 21 22 23 23 23 24 25 25 24 20 16 13 17 22 20 19 14 18 20 18 18 19 27 29 27 33 30 33 35 33 33 30 33 28 35 34 29 28 28 26 23 23 20
23 22 24 24 23 24 25 28 29 26 24 21 13 14 11 17 22 24 25 27 25 23 22 20 17 24 28 23 27 33 31 29 32 32 29 25 35 28 27 27 29 24 21 18 18
21 23 24 24 24 25 27 30 23 19 10 8 9 15 20 5 18 16 23 22 21 25 23 24 19 20 19 24 22 27 28 36 31 29 28 29 40 29 27 27 27 26 24 16 19
24 24 23 23 25 28 32 23 20 13 6 8 16 8 20 14 5 5 5 10 16 17 20 19 16 18 19 21 27 32 34 30 33 28 29 34 36 31 26 25 26 30 19 21 23
23 24 23 25 26 29 26 22 3 8 16 14 13 14 22 10 12 14 12 8 12 14 23 24 16 27 42 37 33 31 26 32 32 28 31 31 32 28 22 26 28 27 26 18 23
26 27 27 27 29 22 12 10 8 7 12 22 25 28 33 31 24 20 19 16 15 19 21 24 30 44 28 33 32 34 32 34 29 28 23 28 30 28 26 25 27 28 28 23 21
27 27 29 28 27 13 13 12 7 11 9 24 25 24 20 21 25 23 22 22 23 22 25 29 42 26 32 32 33 33 33 30 31 25 23 25 29 30 28 27 26 27 29 28 27
29 30 28 29 18 16 11 8 8 10 8 19 11 7 9 9 13 17 23 24 25 29 22 27 32 32 34 35 34 32 30 29 27 22 20 21 23 28 21 24 26 25 26 25 21
33 32 27 18 16 11 11 10 10 4 6 5 9 8 5 10 3 4 15 16 24 25 22 34 26 34 36 41 32 38 25 26 26 21 23 28 19 20 22 24 22 21 21 22 20
36 27 13 7 8 11 13 8 7 6 4 4 7 13 15 15 6 9 8 13 11 20 28 31 27 28 38 34 28 31 28 26 21 18 20 26 21 24 24 25 24 22 22 18 18
31 10 7 7 10 12 10 7 5 6 7 9 12 13 14 22 13 11 10 13 14 16 20 31 31 29 29 28 36 28 26 17 19 17 23 18 20 23 23 22 19 18 19 18 16
17 4 4 9 10 10 9 3 8 10 11 17 18 20 19 20 16 7 11 16 17 15 18 22 25 34 27 29 33 34 28 17 33 15 19 24 24 17 14 9 9 15 12 10 10
9 7 3 10 7 4 3 6 6 12 14 15 20 16 17 19 17 14 17 16 5 6 7 14 27 29 34 26 25 39 27 34 24 24 17 15 18 20 18 16 12 11 14 14 12
14 8 6 7 5 4 3 7 10 13 14 16 19 10 15 19 6 16 6 1 2 5 3 13 10 27 30 32 32 31 29 23 20 27 22 14 11 9 7 6 16 14 19 16 14
11 3 6 6 6 4 4 8 15 14 14 10 19 20 17 15 18 15 13 6 4 6 8 16 5 14 29 32 32 24 25 29 22 18 16 13 12 6 6 8 10 15 19 19 17
8 4 6 7 3 4 5 16 16 15 14 15 10 15 15 16 14 15 18 8 6 9 14 15 8 16 15 26 30 31 30 31 18 27 18 11 6 4 7 11 12 18 19 18 18
6 3 6 1 5 7 14 18 9 13 15 10 10 15 17 18 7 8 2 7 3 8 4 7 11 16 4 17 31 30 33 27 27 18 20 14 6 7 4 4 10 9 16 17 18
4 5 2 1 4 9 13 14 16 13 12 12 17 11 6 15 11 7 10 2 3 14 9 7 11 20 9 8 19 29 32 29 29 15 18 20 6 10 13 11 11 11 13 17 18
4 3 4 5 8 10 14 15 15 14 13 19 13 14 16 16 17 5 7 14 3 5 4 3 12 23 16 16 26 28 27 27 29 24 16 21 14 13 15 12 12 13 14 16 18
3 5 8 12 8 10 11 11 15 18 16 14 15 19 18 17 16 16 14 12 2 4 5 6 10 16 19 15 24 18 30 26 23 26 18 14 15 7 13 12 9 11 14 16 17
2 7 3 10 10 6 9 12 18 17 11 13 17 19 18 17 18 20 20 18 13 15 11 5 7 10 15 16 24 16 21 22 24 25 20 12 4 4 7 3 3 3 13 17 17

GFSSW_925_spd_030.txt.gz
Wind_Speed
17 17 16 17 17 17 17 16 16 15 15 17 19 21 22 23 22 16 13 18 9 26 13 8 10 14 18 17 19 17 14 16 23 22 19 15 17 15 13 4 9 2 6 5 13
18 18 17 17 18 18 18 18 16 16 16 17 19 20 20 22 25 27 28 24 26 16 15 19 17 16 16 17 17 17 16 26 22 21 18 19 18 11 15 10 13 14 11 18 18
19 19 19 19 18 18 19 19 19 19 18 17 18 19 19 19 13 11 12 27 32 29 23 21 23 20 22 21 23 23 24 25 23 24 24 22 22 19 23 18 12 19 18 16 14
20 21 22 22 22 22 21 20 20 19 20 20 20 20 20 12 8 6 10 1 24 19 19 19 18 24 24 26 25 27 30 27 28 26 27 26 25 26 24 24 18 24 17 16 12
20 21 23 24 25 26 25 24 22 21 21 21 19 18 14 10 13 15 7 0 8 16 22 22 24 22 29 26 25 31 28 28 29 26 27 27 28 27 29 24 25 23 21 20 17
22 22 23 24 25 27 27 26 26 25 25 20 17 14 13 22 13 17 16 16 15 17 25 24 22 24 25 29 30 28 29 31 29 30 29 30 28 26 26 22 24 23 23 23 21
22 23 25 26 26 26 27 29 29 30 28 23 16 14 18 23 20 21 20 17 20 23 19 21 23 24 26 31 29 30 33 31 32 30 31 26 32 28 24 25 26 25 23 22 19
23 24 25 25 27 28 29 31 31 32 25 22 16 14 13 17 20 23 25 26 27 26 26 24 24 22 23 28 32 32 32 30 29 29 33 26 31 26 25 22 22 23 21 21 23
23 24 25 25 27 29 32 35 33 22 18 13 8 12 14 15 14 19 20 25 25 25 27 24 23 20 18 21 22 29 23 33 33 30 30 29 31 28 26 25 25 20 21 20 20
24 25 26 27 31 32 37 33 26 21 13 12 17 11 19 12 16 5 8 8 13 17 18 21 15 19 18 19 24 23 30 34 29 26 27 30 29 28 25 26 26 21 20 17 19
26 28 29 30 31 32 31 18 12 5 11 18 14 13 23 17 5 10 9 12 9 13 20 21 17 25 42 31 30 26 32 33 29 25 27 25 26 29 22 21 23 24 17 16 18
30 30 31 32 31 29 20 10 15 11 18 19 26 31 35 34 28 25 22 17 15 17 19 20 28 37 23 29 30 33 33 31 28 26 23 23 25 24 23 20 22 21 17 14 14
32 36 33 31 27 16 11 13 17 17 16 30 35 30 26 26 26 24 21 22 22 21 20 23 36 25 28 28 31 32 33 26 30 24 27 24 25 25 24 24 23 18 17 15 14
33 37 30 22 11 18 13 18 17 18 9 11 9 6 15 11 19 18 23 23 24 26 22 24 25 31 29 33 31 28 28 28 27 22 21 20 20 25 19 22 21 18 19 19 18
35 31 19 7 11 9 16 19 16 7 6 12 16 10 16 9 7 8 9 15 24 22 20 33 24 26 30 36 28 34 22 26 27 25 21 24 15 27 16 19 15 16 16 16 14
35 21 16 11 12 16 19 15 12 4 5 11 6 8 12 14 18 14 8 11 13 21 20 28 26 27 27 28 32 26 29 27 25 19 18 25 21 25 18 18 17 18 20 18 14
30 13 12 11 12 18 16 7 5 4 18 7 19 18 17 14 15 15 14 9 7 8 18 24 26 29 29 29 28 31 22 16 18 17 22 19 22 21 21 19 19 21 19 12 9
24 11 12 12 14 13 12 3 4 9 17 21 18 21 19 20 17 19 7 10 19 16 14 15 19 27 26 31 27 29 26 15 24 17 19 23 22 20 22 19 14 10 3 8 3
24 15 12 8 10 9 6 2 3 12 17 19 21 17 16 16 15 20 13 17 13 11 7 8 12 21 22 29 29 28 28 29 23 21 16 17 20 31 24 18 13 7 9 8 14
18 15 8 8 8 7 5 9 9 14 13 17 17 14 21 24 6 11 11 6 12 5 1 7 16 20 29 27 32 31 20 26 18 25 22 20 23 14 17 19 16 12 11 14 16
10 4 5 5 7 4 4 10 19 18 13 15 16 15 18 20 18 13 8 15 8 8 5 11 11 23 23 21 28 23 25 22 21 17 16 14 13 7 14 9 4 13 14 16 16
8 5 7 4 4 4 6 20 22 21 15 14 11 13 10 19 21 20 18 7 0 7 12 14 6 17 25 25 15 29 25 23 15 25 17 14 16 8 4 5 6 13 17 19 16
5 8 6 4 4 9 15 17 19 17 16 19 13 16 12 13 7 6 4 13 6 5 3 7 6 11 18 20 22 18 28 25 19 12 20 17 15 7 7 8 9 16 18 17 17
5 4 5 8 6 10 15 16 17 18 14 19 20 18 5 12 19 5 5 10 7 8 10 3 6 15 11 13 13 10 20 31 25 17 17 19 4 6 8 9 12 18 19 18 16
3 4 8 7 10 13 14 16 18 17 17 19 12 17 21 22 19 14 14 11 7 5 5 3 5 14 19 19 15 19 29 27 31 23 22 21 19 7 13 14 13 11 16 16 17
5 5 8 13 13 14 13 13 19 21 19 16 15 20 20 19 19 21 18 16 9 4 0 4 4 15 20 16 8 21 32 25 29 27 27 25 16 13 14 17 14 11 16 16 17
8 11 3 9 11 11 8 13 18 20 12 19 19 18 18 16 18 22 20 20 21 18 14 7 3 6 6 10 3 15 23 23 22 24 27 16 11 18 13 9 12 15 15 15 16

GFSSW_925_spd_033.txt.gz
Wind_Speed
16 16 16 16 16 17 18 18 18 19 20 20 19 21 22 23 27 19 11 18 12 20 12 5 7 15 17 8 9 9 5 8 10 13 16 19 13 8 5 8 4 4 2 1 11
17 17 17 17 17 18 18 18 18 18 18 19 20 22 22 24 27 16 34 30 26 18 14 22 11 12 7 6 8 12 8 17 17 13 15 18 15 14 6 5 3 4 6 18 19
18 18 18 18 18 19 20 20 19 18 18 18 20 22 22 23 8 7 5 10 30 27 26 22 20 12 12 11 12 12 19 17 18 17 21 22 19 17 13 7 5 5 8 19 15
20 20 20 21 21 21 21 21 20 20 19 19 19 19 21 9 6 2 14 17 7 30 21 18 7 6 7 16 17 18 21 19 22 21 23 25 22 20 17 10 8 10 12 10 12
22 22 23 24 25 26 25 24 23 22 21 22 20 16 11 6 10 21 25 7 4 17 20 12 11 5 9 7 16 23 20 19 20 19 23 24 26 23 22 19 13 11 18 10 9
22 23 24 26 26 27 28 28 28 26 24 20 18 13 7 14 16 26 22 17 14 17 16 15 7 10 10 11 20 14 15 22 18 21 22 24 25 21 21 19 14 13 13 10 11
23 24 25 26 27 28 30 31 32 31 28 21 15 12 12 20 21 24 25 27 23 19 11 22 26 13 8 12 21 18 21 20 24 22 25 22 30 31 20 14 17 15 17 17 11
24 25 27 28 29 30 32 35 36 30 27 19 11 9 8 25 21 29 21 25 22 22 21 22 20 7 4 7 15 17 16 22 22 21 23 17 40 13 14 14 14 18 19 11 11
25 26 27 29 29 31 34 38 34 23 16 12 5 8 9 17 14 22 24 17 19 24 24 20 15 7 8 5 6 13 21 24 26 23 19 15 28 20 17 19 22 22 22 19 16
26 28 32 33 30 30 33 31 23 12 6 6 11 6 9 6 6 12 15 21 12 10 11 14 7 10 10 11 18 11 21 26 29 12 14 21 27 30 29 21 23 22 20 19 18
30 31 37 35 32 26 29 16 8 4 2 13 18 15 24 21 26 13 10 2 6 5 8 8 8 21 36 21 13 13 21 20 18 18 16 21 23 25 18 10 13 12 11 11 10
32 35 37 32 27 17 12 4 11 13 13 21 22 26 33 32 23 21 28 16 9 9 8 9 24 24 16 14 19 20 25 24 15 14 16 22 20 24 22 18 19 23 19 11 8
32 35 29 26 20 11 15 19 25 22 5 22 15 15 21 21 23 21 20 17 16 13 12 15 15 17 20 19 19 25 27 19 21 13 23 16 15 17 17 16 13 10 11 8 11
32 34 23 25 6 23 14 25 21 19 4 11 19 9 10 11 12 22 27 18 17 17 14 15 16 21 19 22 22 24 14 20 21 13 19 6 17 21 17 19 16 18 10 13 11
32 30 20 16 13 10 23 28 19 7 4 18 4 7 7 6 12 13 24 13 19 17 12 25 14 7 16 21 19 24 13 18 16 14 15 20 9 27 10 12 9 8 15 13 11
33 24 22 10 12 16 22 23 9 2 3 10 9 16 14 13 7 4 4 17 13 15 18 19 14 17 18 19 18 18 17 21 14 9 12 20 14 30 16 19 5 10 11 10 10
39 20 17 14 6 17 18 9 3 2 7 10 18 18 18 16 19 19 2 9 1 6 14 16 19 20 19 19 18 14 14 8 9 10 17 11 11 20 7 12 15 15 13 12 10
40 15 14 14 13 14 17 3 2 5 11 16 18 10 9 15 15 21 15 12 12 14 5 10 8 9 8 18 15 13 11 10 14 14 16 11 11 7 15 17 15 19 14 2 10
34 13 8 1 2 7 4 2 3 8 10 22 18 13 13 17 11 11 12 4 4 7 4 3 6 10 16 15 10 21 18 13 17 18 5 8 9 24 24 23 15 11 7 12 16
26 9 8 1 5 3 3 4 8 18 22 19 12 11 14 13 11 7 7 5 7 2 4 3 7 8 15 14 14 13 10 5 10 16 16 8 13 10 17 14 22 10 11 14 14
4 3 7 1 3 3 1 4 18 22 19 11 13 13 12 10 8 12 8 11 14 11 7 8 4 8 9 4 9 7 14 11 7 11 13 8 10 16 20 21 14 11 19 18 17
8 3 7 2 2 2 2 13 18 20 18 17 14 17 7 10 11 9 7 4 5 15 5 5 4 7 11 18 18 15 18 15 10 8 12 6 11 7 8 7 12 19 19 17 18
6 4 6 3 1 3 7 12 16 18 17 7 13 11 11 7 5 6 6 3 12 11 3 4 3 4 7 9 9 9 11 9 7 9 17 15 12 10 13 5 10 20 20 18 18
4 4 4 3 4 8 11 12 14 13 12 16 15 12 12 14 11 4 7 5 9 11 9 0 3 7 8 15 7 12 18 17 9 9 11 17 20 13 12 8 8 21 20 20 20
3 3 5 5 9 14 10 7 12 16 10 12 5 14 15 11 15 10 14 13 11 5 2 2 6 10 14 18 17 14 16 18 13 16 10 13 12 16 11 3 19 20 19 19 19
3 3 4 10 11 13 5 3 10 13 15 12 12 17 15 13 13 15 16 12 7 4 4 6 4 8 15 18 14 13 15 17 18 22 17 21 20 5 3 10 14 18 19 19 19
10 7 4 6 8 10 10 13 10 14 9 17 16 14 15 13 15 19 14 15 12 12 10 6 3 3 5 5 10 3 14 17 14 18 18 16 22 5 11 14 4 12 16 18 18

GFSSW_925_spd_036.txt.gz
Wind_Speed
15 15 16 17 18 18 18 19 19 20 21 21 21 22 24 25 28 24 10 22 14 17 21 6 7 11 12 4 6 5 2 5 6 7 9 5 4 18 10 6 2 4 6 8 15
15 15 17 17 18 19 20 19 19 20 20 21 22 23 25 27 29 15 31 29 26 20 12 14 9 9 4 6 4 6 8 9 10 11 6 14 8 20 13 15 7 2 2 8 17
17 17 17 18 19 20 21 22 21 19 19 19 21 23 24 24 7 8 9 10 9 24 27 13 14 4 8 5 6 6 14 14 15 11 9 13 13 14 17 12 6 5 5 7 5
18 18 19 19 20 20 21 21 22 22 22 20 20 21 22 8 7 2 5 19 18 11 21 12 6 5 6 12 11 11 12 14 16 16 14 17 17 13 16 17 11 10 9 7 9
19 20 21 22 23 24 23 24 23 23 23 22 20 17 10 3 10 26 28 32 21 4 24 10 11 6 7 5 7 22 12 10 13 19 19 17 21 22 22 18 17 12 9 10 10
23 24 25 26 27 27 27 27 27 27 26 20 15 11 6 11 18 21 21 18 17 11 15 12 6 7 4 5 8 4 6 13 13 17 16 17 21 21 24 20 19 14 11 10 10
25 24 27 29 29 29 29 30 31 29 23 17 13 9 9 20 17 24 23 26 26 18 6 13 17 5 6 4 9 12 10 16 19 9 12 12 24 27 20 18 19 19 13 11 10
25 26 27 31 32 31 30 31 29 28 22 13 7 5 8 32 29 33 25 24 19 15 15 17 10 6 6 5 6 2 6 18 20 18 9 6 33 20 12 12 13 13 16 18 21
26 28 30 31 30 29 26 27 25 23 12 2 5 6 10 13 8 14 17 15 11 13 10 11 6 6 3 3 1 6 16 19 21 8 5 13 42 13 12 15 13 12 15 17 20
28 30 31 31 28 26 22 24 19 10 12 2 2 3 7 5 6 29 19 12 8 3 2 1 2 5 4 6 19 11 22 16 14 6 17 21 33 19 21 23 22 23 24 22 22
30 32 33 28 27 21 20 21 11 5 10 3 17 16 25 45 47 29 21 9 7 1 6 3 4 19 20 16 9 8 11 14 2 11 16 20 21 19 16 13 12 17 18 20 20
30 31 28 24 25 13 11 4 11 8 11 15 17 21 35 34 22 28 26 4 0 5 4 4 19 9 9 6 11 13 14 19 6 9 10 12 23 25 23 22 19 23 21 15 9
31 31 27 23 15 11 9 15 23 20 3 10 19 13 12 5 15 24 5 5 6 8 7 10 6 9 15 10 16 15 18 16 11 12 22 9 17 13 18 13 12 10 12 11 12
31 29 24 24 4 20 11 22 21 14 4 7 10 5 9 3 3 17 27 12 5 10 9 10 11 14 11 18 16 19 11 12 17 12 14 7 19 17 19 23 16 15 11 10 17
31 26 22 9 11 9 17 23 21 2 3 9 10 3 12 11 15 2 5 7 19 19 7 13 8 1 11 17 13 19 13 11 16 10 9 16 4 33 11 19 18 14 11 18 16
34 24 23 4 12 14 21 21 5 4 3 7 5 12 11 13 16 12 7 6 4 5 16 18 8 11 12 13 9 7 8 13 16 3 10 15 9 29 17 21 11 8 12 10 12
34 25 13 12 6 16 20 4 4 5 4 8 22 18 8 11 12 11 5 2 4 7 5 7 13 14 15 12 11 5 1 2 3 5 16 14 11 23 6 6 11 16 16 16 12
30 18 9 14 12 14 12 5 6 3 6 15 17 19 4 8 6 10 11 5 10 2 5 2 4 7 8 9 8 6 9 5 9 4 5 9 10 9 16 26 26 20 14 11 8
27 13 7 6 4 6 5 5 5 8 6 12 14 10 5 6 6 5 5 3 4 3 5 3 5 2 8 4 2 5 8 7 5 15 2 6 15 17 21 26 22 17 9 7 6
17 8 6 3 3 5 4 2 4 12 16 13 1 9 9 6 5 7 3 4 7 8 3 3 4 6 5 3 3 6 3 1 2 6 10 6 7 8 9 16 7 10 9 8 7
5 3 4 2 2 4 2 5 10 13 11 7 5 5 11 7 2 3 4 4 4 6 6 2 1 3 4 4 4 2 3 3 4 3 7 4 9 7 19 11 14 12 12 16 14
7 2 3 4 3 1 1 5 14 14 12 3 5 5 7 7 3 4 4 4 2 2 5 1 1 4 8 14 16 10 6 5 3 8 5 9 20 14 14 16 12 11 16 15 17
5 3 4 4 3 4 6 11 10 13 11 3 4 5 5 4 5 5 2 6 7 3 3 4 1 3 10 6 2 5 5 2 4 7 19 6 10 7 9 12 5 10 15 15 16
3 4 4 4 1 2 7 6 9 11 13 8 10 3 6 7 3 6 9 5 4 6 6 4 4 6 7 5 3 5 8 8 5 3 10 19 14 28 19 19 7 10 17 18 18
2 2 1 4 5 7 7 7 16 8 4 7 4 10 13 5 6 4 5 8 9 12 4 7 5 8 14 16 16 16 16 13 12 9 4 7 12 16 18 16 12 14 15 18 17
2 3 4 5 5 4 5 3 14 12 7 7 9 18 12 8 9 11 11 6 8 5 6 4 4 5 13 16 17 20 19 13 16 12 9 15 24 10 13 13 10 17 19 19 19
5 4 2 4 5 5 2 12 13 14 9 8 13 14 13 13 12 16 16 19 12 7 6 6 4 2 7 13 14 8 15 17 14 8 4 5 7 16 15 2 6 7 10 21 20

GFSSW_925_spd_042.txt.gz
Wind_Speed
16 17 18 19 19 20 20 20 19 18 19 20 20 20 22 25 29 27 9 15 12 12 15 16 11 9 5 4 5 5 1 5 7 8 5 2 1 4 3 2 1 4 2 6 4
20 20 20 20 20 19 20 21 21 21 20 18 19 21 22 25 26 15 20 16 14 11 15 8 6 10 4 5 5 5 5 10 6 10 4 3 3 2 3 5 1 2 3 13 8
21 21 21 21 22 22 21 20 20 21 21 20 19 19 21 21 6 6 12 11 14 15 13 12 6 5 6 5 6 8 12 14 6 5 4 8 8 1 4 4 8 4 3 8 4
21 21 22 23 23 24 23 22 21 20 20 20 19 18 17 8 6 1 9 18 18 9 6 5 6 5 8 11 6 5 13 16 5 7 3 9 6 8 7 11 7 9 9 4 8
23 23 24 24 25 25 24 23 22 21 19 16 13 10 7 4 11 14 16 16 16 12 2 5 8 4 8 6 5 15 4 8 19 11 10 6 17 11 18 13 14 14 12 11 10
24 25 25 26 26 25 22 19 22 23 19 13 6 1 3 4 8 17 22 28 26 15 7 7 7 7 5 6 18 3 11 14 7 6 4 5 13 5 1 9 11 11 17 10 10
26 27 28 30 26 22 18 21 23 21 16 8 4 6 5 13 14 20 19 16 20 17 4 10 20 4 3 2 7 2 5 4 6 4 7 7 25 31 17 13 15 19 21 17 11
25 26 27 28 25 21 18 20 20 10 9 3 7 8 7 13 14 14 7 11 19 17 17 20 13 3 5 4 2 4 5 15 15 8 6 10 33 18 14 17 22 20 16 14 18
25 27 26 26 24 23 20 18 20 6 9 6 5 3 10 14 7 15 12 7 19 8 8 14 5 6 3 4 3 4 15 11 8 9 9 16 31 7 4 7 12 10 9 10 11
26 27 26 25 23 20 19 22 19 4 6 1 1 2 7 7 10 13 12 16 4 3 3 4 4 4 4 6 15 9 10 2 6 6 14 14 29 14 13 15 17 14 15 15 13
26 26 24 22 21 14 20 12 7 5 3 5 8 4 17 13 23 6 9 4 3 2 3 4 4 13 16 13 10 4 2 1 0 3 4 17 21 16 9 11 13 16 17 20 21
27 25 23 18 17 8 11 4 4 6 9 9 13 9 22 11 5 6 1 3 4 4 3 4 12 6 3 6 8 6 1 3 5 9 5 5 14 10 7 10 11 17 18 16 14
28 26 20 17 10 4 8 3 12 6 2 8 6 5 8 4 5 7 1 1 1 2 4 7 5 4 6 5 5 5 8 3 6 7 12 9 16 15 12 12 16 17 16 12 16
29 26 19 16 1 9 4 8 21 2 3 5 7 4 8 12 2 23 7 4 4 6 3 5 6 5 6 5 7 4 6 2 1 3 6 3 12 14 13 19 15 14 15 17 9
29 26 17 9 9 4 5 14 9 3 4 10 5 7 15 2 8 3 20 1 8 6 2 9 5 2 4 6 7 12 11 9 6 6 3 1 5 14 4 13 15 19 23 21 14
32 25 15 4 5 8 12 18 3 5 5 6 7 10 12 6 7 6 4 2 3 3 6 17 3 6 7 6 4 1 5 4 3 3 7 6 7 25 10 16 12 13 16 13 13
34 16 5 4 2 11 16 3 4 4 4 6 8 11 15 5 8 5 9 7 3 4 4 3 7 7 5 4 0 3 4 2 1 2 11 14 9 24 5 5 5 3 9 10 9
26 8 0 4 7 13 5 5 4 4 5 6 9 17 5 6 7 7 7 6 4 3 3 3 4 5 6 9 7 6 8 4 6 5 5 7 12 11 12 21 13 8 10 9 9
19 6 3 5 4 6 5 4 6 3 4 7 12 3 4 6 3 6 4 3 4 4 4 3 4 15 3 5 11 4 4 6 2 1 0 4 11 11 13 18 14 4 7 10 10
11 8 6 7 2 5 4 2 3 4 7 7 4 3 5 6 6 5 3 2 4 4 5 4 4 2 13 1 5 7 6 4 2 4 5 4 5 8 7 6 6 8 11 12 11
5 3 10 5 3 5 3 4 4 4 3 4 4 5 5 5 4 4 5 5 1 3 4 4 2 2 2 2 3 3 1 2 4 4 4 2 5 7 6 6 3 7 8 11 15
6 2 10 6 4 1 1 4 5 4 3 4 4 4 4 4 5 5 5 3 2 2 5 3 1 4 4 5 3 4 4 1 5 5 7 3 7 3 7 7 8 13 13 13 8
3 3 6 6 2 3 5 4 4 4 4 3 4 3 3 3 6 5 7 4 6 1 2 3 2 4 7 3 3 1 3 5 1 1 5 5 7 4 9 13 12 15 14 13 3
2 4 4 4 1 2 4 4 6 7 5 4 5 4 2 4 8 6 9 8 4 2 14 2 3 4 4 0 2 5 5 3 4 3 6 18 13 20 21 15 19 20 14 14 5
3 1 0 4 3 5 3 4 7 7 3 4 4 5 10 8 14 15 5 6 9 16 5 3 5 4 8 12 11 13 14 13 12 10 8 5 7 4 18 15 16 16 16 15 5
2 3 3 3 5 4 4 3 8 8 6 9 5 16 15 11 14 21 15 7 6 6 3 2 4 5 8 12 15 16 15 16 18 16 19 16 20 6 18 11 15 18 15 10 6
3 1 2 3 4 3 3 4 9 12 8 9 14 15 14 14 12 19 20 20 15 8 4 2 2 1 4 3 6 9 18 20 18 19 11 17 11 7 16 9 14 13 10 8 8

GFSSW_925_spd_045.txt.gz
Wind_Speed
17 18 17 18 18 19 20 20 19 18 18 18 18 19 22 23 25 17 6 5 5 12 15 11 7 4 6 6 6 4 7 13 19 14 10 2 6 3 3 5 2 1 2 5 5
17 18 19 19 20 20 21 21 20 19 18 17 18 19 19 20 18 11 5 5 6 9 7 6 6 12 5 8 8 10 11 20 11 15 8 13 7 4 4 4 3 4 7 6 5
17 18 18 18 18 19 19 20 20 20 18 17 17 17 18 16 5 2 11 10 14 10 8 3 5 8 15 8 13 11 20 20 17 18 13 20 17 8 8 12 12 8 1 7 10
19 19 20 20 20 19 18 17 17 17 17 16 16 15 15 7 5 3 10 18 14 14 1 3 6 8 11 18 16 15 21 22 15 11 8 17 15 13 16 22 13 13 11 12 14
20 20 21 22 23 22 19 17 18 17 15 13 11 9 7 3 6 4 13 16 14 8 2 4 10 11 16 12 18 25 23 14 22 15 13 11 21 19 20 20 19 20 18 19 18
21 22 22 23 22 21 17 18 20 19 13 8 6 2 3 5 6 11 10 9 10 4 1 2 4 10 9 15 21 13 20 22 16 15 15 18 28 18 16 14 18 14 18 19 17
24 23 23 23 20 19 15 16 17 10 11 7 3 4 2 9 6 13 12 8 7 4 1 7 9 8 3 12 12 18 19 13 18 23 16 6 24 36 22 19 24 23 22 21 19
24 24 24 22 20 19 16 15 14 9 7 6 6 3 6 8 15 16 11 11 7 5 3 6 7 6 8 9 9 11 17 22 26 11 9 15 31 34 17 21 26 25 23 21 18
25 25 24 21 19 18 18 17 13 5 3 6 5 1 8 13 9 11 10 8 10 5 3 3 4 6 6 13 10 14 21 26 24 22 15 19 35 27 17 15 18 16 15 15 15
25 26 24 20 18 16 19 13 6 4 3 2 3 3 4 11 16 20 11 12 6 6 4 3 5 9 12 13 20 18 24 21 18 13 22 24 34 23 17 16 18 17 17 19 19
24 24 24 17 16 12 18 3 4 1 3 3 7 5 14 14 17 7 8 5 6 5 4 4 9 17 19 19 21 10 13 19 18 9 21 25 28 24 19 22 24 24 21 21 21
26 25 24 15 13 4 9 5 4 3 8 5 10 9 17 9 6 11 6 2 3 11 6 4 14 14 12 13 17 22 18 10 8 9 8 16 21 16 15 19 20 21 22 23 22
28 26 23 15 6 3 2 6 2 3 4 7 5 5 6 11 6 10 2 2 6 9 9 11 12 9 13 17 17 18 22 20 10 6 12 12 22 23 22 20 21 23 22 23 20
31 26 20 14 2 4 2 4 12 10 2 3 3 1 8 15 4 16 5 7 4 8 9 12 13 8 15 14 19 19 11 15 20 12 13 4 11 16 17 18 19 19 20 21 20
33 27 19 7 5 2 0 8 0 5 4 8 3 4 15 5 10 6 9 3 10 14 7 21 14 16 16 17 15 18 11 9 5 9 11 18 10 16 12 20 19 16 20 21 22
36 24 9 1 4 2 8 6 4 2 3 4 6 13 18 11 9 8 11 8 8 9 11 20 16 17 17 11 13 13 16 21 17 13 15 16 12 23 17 21 18 17 15 13 16
33 12 3 4 1 7 11 2 2 2 4 4 8 12 19 6 13 13 18 11 5 6 10 15 16 15 17 13 9 9 12 9 10 11 17 11 13 23 9 6 1 8 15 15 11
24 5 3 4 9 11 4 1 3 1 4 7 9 18 4 8 12 15 11 10 4 4 6 6 8 13 5 22 17 15 14 7 15 12 15 13 13 9 10 16 12 8 7 10 12
16 4 4 9 4 7 2 0 2 1 5 8 15 5 3 5 9 9 13 7 4 2 5 6 5 10 11 9 18 12 10 16 5 1 8 10 17 16 16 14 12 12 8 13 17
10 4 5 8 5 3 2 2 2 3 8 5 4 3 7 12 9 11 7 4 6 3 1 4 8 1 12 11 13 14 10 9 7 6 8 9 15 9 3 9 9 12 14 17 17
5 0 7 6 3 3 2 3 4 5 7 3 5 8 9 8 7 9 6 13 3 7 8 7 4 4 5 7 3 7 7 8 9 12 4 3 3 4 7 9 8 12 17 18 18
6 1 10 4 2 1 1 6 6 6 2 4 5 8 7 9 9 7 9 6 10 7 13 3 4 7 6 6 6 3 4 7 8 20 11 10 5 6 9 8 13 17 20 19 17
4 3 7 5 2 2 4 5 4 5 7 4 4 2 3 4 6 8 10 5 10 9 3 7 1 7 6 5 4 3 3 5 6 6 15 14 9 10 8 14 15 19 21 20 20
3 3 3 4 1 2 4 3 5 6 10 4 9 9 5 5 12 9 14 10 10 11 16 13 4 8 9 8 7 9 11 10 6 9 14 19 20 24 22 23 23 19 20 21 20
3 2 2 4 2 7 4 4 8 5 3 8 3 6 8 6 15 15 12 13 17 21 9 4 7 11 15 15 15 17 18 17 16 18 13 18 20 22 19 17 22 21 21 22 21
3 3 2 4 7 6 3 3 8 4 5 9 7 13 16 16 16 22 18 16 6 5 3 6 7 8 15 14 15 20 20 20 23 21 24 25 24 19 23 23 24 22 20 21 18
1 1 2 3 3 4 2 3 7 14 10 11 14 15 16 18 15 21 21 22 16 6 5 3 3 3 7 6 5 11 21 22 21 21 17 22 21 18 24 22 20 21 19 20 18

GFSSW_925_spd_048.txt.gz
Wind_Speed
16 16 16 17 18 18 17 17 16 15 15 16 17 18 19 20 22 14 11 3 4 10 10 11 9 7 12 16 17 13 13 17 23 19 13 6 15 16 8 11 9 2 3 6 1
16 16 17 18 18 19 19 18 16 15 15 15 16 17 19 19 17 8 0 6 7 8 8 11 14 14 13 17 13 17 17 26 18 14 9 17 16 11 7 15 14 9 8 5 6
17 18 18 19 19 18 17 16 15 15 15 15 16 16 16 16 8 4 7 7 8 10 6 8 13 15 21 16 23 22 26 22 22 16 13 19 19 14 14 16 16 13 10 3 2
18 18 18 19 18 17 15 15 17 18 18 15 14 13 13 7 3 3 9 13 14 7 5 5 9 17 20 26 22 26 26 26 27 17 12 21 18 24 23 21 18 6 9 12 13
19 19 20 20 18 16 14 13 16 18 15 12 10 9 7 5 4 2 6 8 4 2 8 8 10 14 25 19 25 29 29 25 24 23 17 19 24 23 23 22 20 19 17 19 18
20 21 21 19 16 14 12 13 14 14 11 9 8 5 5 4 6 5 9 12 6 7 3 8 9 10 16 23 25 21 25 30 28 20 21 25 28 21 27 23 22 22 22 22 19
20 21 20 19 15 14 12 13 14 13 10 7 6 1 4 7 7 11 12 9 8 7 9 7 13 12 6 15 21 24 27 26 25 29 28 20 29 36 29 25 24 20 21 21 21
23 23 22 19 14 14 14 16 17 10 4 3 1 2 4 3 9 11 11 11 4 9 10 9 10 15 18 16 18 17 23 25 34 26 25 22 30 37 28 26 26 27 22 23 24
24 24 23 18 15 15 17 18 8 1 1 4 1 5 2 6 13 12 10 11 14 10 7 8 7 14 14 18 17 21 24 31 30 28 24 21 37 34 30 22 23 22 21 21 20
25 25 24 20 15 12 16 8 4 5 3 2 3 4 4 9 18 19 7 10 8 9 10 10 8 12 14 16 22 27 27 28 28 23 27 28 35 29 22 13 24 24 23 22 20
28 25 24 19 14 8 13 6 5 6 5 7 5 5 7 16 16 10 8 9 8 9 13 12 11 14 17 20 26 25 27 26 21 21 27 29 35 30 27 28 26 23 23 23 23
30 24 23 17 12 5 5 4 4 5 7 5 6 6 9 6 12 10 10 6 8 12 11 10 16 16 13 17 21 23 26 30 20 17 21 26 31 27 27 29 27 26 25 24 23
32 28 23 13 5 3 3 5 3 7 6 2 3 6 4 11 10 11 11 8 14 16 14 15 16 11 11 14 20 24 25 24 27 17 22 20 27 26 23 22 21 24 24 24 24
32 29 22 7 1 1 0 2 9 4 5 5 5 4 5 13 8 12 3 10 14 17 15 16 13 14 15 20 18 21 22 25 24 22 20 20 21 23 24 28 28 27 26 24 23
36 27 17 4 2 1 3 6 3 5 4 2 2 3 10 8 9 1 9 8 16 18 14 19 19 17 17 19 20 22 19 24 20 21 24 30 18 18 18 22 22 20 20 21 22
36 18 5 3 3 0 5 2 6 6 0 0 2 9 11 10 5 7 12 12 12 15 15 19 17 18 22 21 24 22 18 21 20 18 20 27 23 20 20 22 19 17 18 17 12
34 8 2 3 3 3 5 4 5 5 2 2 8 12 16 8 10 9 14 11 7 9 11 15 11 10 15 17 20 17 17 12 17 19 18 20 19 18 7 7 7 1 6 9 7
26 3 1 1 4 5 6 6 5 2 5 10 10 17 7 9 8 13 11 12 4 9 12 8 12 3 5 16 20 20 19 14 20 17 22 26 22 17 21 22 23 14 4 5 6
13 0 2 4 3 6 7 4 2 5 5 9 16 8 3 5 9 12 12 7 5 7 9 12 8 17 3 12 19 21 19 21 24 20 15 19 25 24 14 10 10 9 6 5 8
9 3 3 8 5 7 4 3 3 3 8 8 12 4 12 14 11 10 10 4 8 2 7 12 18 11 2 5 20 23 19 14 13 15 17 15 22 12 21 24 12 5 3 8 11
5 4 5 6 4 3 2 4 6 4 8 6 9 13 13 11 10 12 6 13 3 10 14 15 9 16 12 2 10 12 17 10 15 13 16 12 13 16 7 12 11 4 7 11 14
6 2 6 5 2 1 4 7 4 3 3 9 8 10 10 12 11 13 12 9 16 13 18 9 7 12 17 7 10 2 9 7 11 14 17 16 4 5 18 13 6 5 9 14 16
6 3 3 6 2 4 5 7 4 5 6 5 7 7 12 15 7 8 14 9 15 15 6 8 4 10 9 6 11 6 10 13 13 7 15 15 8 12 9 4 7 12 13 14 17
4 3 1 3 2 5 8 2 4 2 10 4 11 14 11 10 13 10 18 10 12 14 14 12 9 13 14 17 6 10 10 12 12 11 16 17 20 13 14 13 14 17 15 18 18
3 2 4 4 2 9 7 6 7 5 4 11 6 7 10 10 18 19 10 20 21 22 16 6 13 15 17 19 17 16 18 17 19 19 19 18 18 18 18 17 16 17 19 19 16
4 4 4 9 7 8 1 3 7 5 9 10 11 12 14 17 16 23 20 18 7 12 11 6 10 12 17 17 17 20 20 21 22 22 18 22 25 24 23 22 20 18 16 15 15
2 1 2 6 4 5 2 5 10 13 9 9 10 14 18 19 18 22 21 21 16 11 13 8 8 8 13 10 10 12 16 17 21 20 18 21 21 20 20 21 19 18 16 16 15